Weather History for Doylestown, PA

Change the Weather History Date:

Monday, January 7, 2013

  Actual Average (KTTN) Record (KTTN)
Temperature  
Mean Temperature 38 °F 31 °F  
Max Temperature 45 °F 39 °F 66 °F (2012)
Min Temperature 28 °F 23 °F 2 °F (2014)
Degree Days  
Heating Degree Days 28 34  
Month to date heating degree days 237  
Since 1 July heating degree days 2132  
Cooling Degree Days 0 0  
Month to date cooling degree days 0  
Year to date cooling degree days 0  
Moisture  
Dew Point 26 °F    
Average Humidity 64    
Maximum Humidity 82    
Minimum Humidity 42    
Precipitation  
Precipitation 0.00 in 0.12 in 1.60 in (1875)
Month to date precipitation 0.81  
Year to date precipitation 0.81  
Sea Level Pressure  
Sea Level Pressure 30.30 in    
Wind  
Wind Speed 5 mph (WNW)    
Max Wind Speed 12 mph    
Max Gust Speed 22 mph    
Visibility 10 miles    
Events      
T = Trace of Precipitation, MM = Missing Value Source: NWS Daily Summary

Daily Weather History Graph

Daily Weather History Graph

Search for Another Location

Airport:

Trip Planner

Search our weather history database for the weather conditions in past years. The results will help you decide how hot, cold, wet, or windy it might be!

Date:

Astronomy

Jan. 07, 2013 Rise Set
Actual Time 7:23 AM EST 4:50 PM EST
Civil Twilight 6:53 AM EST 5:21 PM EST
Nautical Twilight 6:19 AM EST 5:54 PM EST
Astronomical Twilight 5:46 AM EST 6:27 PM EST
Moon 2:44 AM EST (1/7) 12:59 PM EST (1/7)
Length of Visible Light 10h 28m
Length of Day
9h 27m
Waning Crescent, 23% of the Moon is Illuminated
Jan 7
Waning Crescent
Jan 11
New
Jan 18
First Quarter
Jan 26
Full
Feb 3
Last Quarter

Hourly Weather History & Observations

Time (EST) Temp. Windchill Dew Point Humidity Pressure Visibility Wind Dir Wind Speed Gust Speed Precip Events Conditions
12:54 AM 37.0 °F 33.3 °F 26.1 °F 65% 30.10 in 10.0 mi West 4.6 mph - N/A   Clear
1:54 AM 36.0 °F 32.1 °F 26.1 °F 67% 30.12 in 10.0 mi West 4.6 mph - N/A   Clear
2:54 AM 36.0 °F 31.1 °F 26.1 °F 67% 30.13 in 10.0 mi West 5.8 mph - N/A   Clear
3:54 AM 36.0 °F 33.3 °F 26.1 °F 67% 30.15 in 10.0 mi West 3.5 mph - N/A   Overcast
4:54 AM 36.0 °F 33.3 °F 26.1 °F 67% 30.17 in 10.0 mi West 3.5 mph - N/A   Overcast
5:54 AM 34.0 °F 29.8 °F 26.1 °F 73% 30.20 in 10.0 mi WNW 4.6 mph - N/A   Scattered Clouds
6:54 AM 35.1 °F 29.3 °F 27.0 °F 72% 30.24 in 10.0 mi WNW 6.9 mph - N/A   Overcast
7:54 AM 36.0 °F 33.3 °F 28.0 °F 73% 30.27 in 10.0 mi WNW 3.5 mph - N/A   Overcast
8:54 AM 37.9 °F 33.5 °F 28.9 °F 70% 30.31 in 10.0 mi WNW 5.8 mph - N/A   Overcast
9:54 AM 41.0 °F 34.7 °F 28.9 °F 62% 30.32 in 10.0 mi NW 10.4 mph 16.1 mph N/A   Clear
10:54 AM 44.1 °F 38.1 °F 27.0 °F 51% 30.35 in 10.0 mi NW 11.5 mph 21.9 mph N/A   Scattered Clouds
11:54 AM 45.0 °F 40.6 °F 26.1 °F 48% 30.35 in 10.0 mi NNW 8.1 mph 18.4 mph N/A   Partly Cloudy
12:54 PM 43.0 °F 37.7 °F 25.0 °F 49% 30.35 in 10.0 mi NW 9.2 mph - N/A   Scattered Clouds
1:54 PM 44.1 °F 41.5 °F 24.1 °F 45% 30.35 in 10.0 mi NW 4.6 mph 17.3 mph N/A   Clear
2:54 PM 45.0 °F 40.6 °F 23.0 °F 42% 30.36 in 10.0 mi NW 8.1 mph - N/A   Clear
3:54 PM 44.1 °F 41.5 °F 23.0 °F 43% 30.38 in 10.0 mi WNW 4.6 mph - N/A   Clear
4:54 PM 39.9 °F 37.8 °F 21.9 °F 49% 30.40 in 10.0 mi WNW 3.5 mph - N/A   Clear
6:54 PM 35.1 °F - 25.0 °F 67% 30.41 in 10.0 mi Calm Calm - N/A   Clear
7:54 PM 32.0 °F - 25.0 °F 75% 30.41 in 10.0 mi Calm Calm - N/A   Clear
8:54 PM 32.0 °F - 25.0 °F 75% 30.41 in 10.0 mi Calm Calm - N/A   Clear
9:54 PM 30.9 °F - 25.0 °F 79% 30.40 in 10.0 mi Calm Calm - N/A   Clear
10:54 PM 30.0 °F - 24.1 °F 79% 30.41 in 10.0 mi Calm Calm - N/A   Clear
11:54 PM 28.9 °F - 24.1 °F 82% 30.41 in 10.0 mi Calm Calm - N/A   Clear